When you browse on this site, cookies collect data to enhance your experience and personalize the content and advertising you see.
Visit our Privacy Policy to learn more. By continuing to use the site, you agree to this use of cookies and data.
  • In Slovakia
  • List of Countries
  • For 7 days
  • Water Temperature
  • Weather Map
  • Weather Widgets
  • user-avatar
    Login

    Hourly Weather Shatily

    Today, 16 September, Monday

    Time Temperature Precipitation Wind Pressure Humidity
    00:00 +13°C° 0.1 mm 6 mps 738 mmHg 73%
    01:00 +13°C° 0.1 mm 6 mps 738 mmHg 76%
    02:00 +13°C° 0 mm 6 mps 738 mmHg 73%
    03:00 +13°C° 0.1 mm 6 mps 738 mmHg 75%
    04:00 +11°C° 0.1 mm 6 mps 738 mmHg 77%
    05:00 +11°C° 0.1 mm 6 mps 738 mmHg 79%
    06:00 +11°C° 0 mm 7 mps 738 mmHg 76%
    07:00 +11°C° 0 mm 7 mps 738 mmHg 74%
    08:00 +11°C° 0 mm 7 mps 738 mmHg 73%
    09:00 +12°C° 0.1 mm 7 mps 738 mmHg 69%
    10:00 +13°C° 0.1 mm 8 mps 738 mmHg 66%
    11:00 +13°C° 0.1 mm 8 mps 738 mmHg 63%
    12:00 +13°C° 0.1 mm 8 mps 738 mmHg 63%
    13:00 +13°C° 0.1 mm 8 mps 738 mmHg 63%
    14:00 +13°C° 0.1 mm 8 mps 738 mmHg 63%
    15:00 +13°C° 0.1 mm 8 mps 738 mmHg 63%
    16:00 +14°C° 0.1 mm 7 mps 738 mmHg 64%
    17:00 +12°C° 0.1 mm 7 mps 738 mmHg 64%
    18:00 +11°C° 0 mm 7 mps 738 mmHg 68%
    19:00 +10°C° 0 mm 6 mps 738 mmHg 73%
    20:00 +9°C° 0 mm 5 mps 738 mmHg 77%
    21:00 +9°C° 0.1 mm 5 mps 737 mmHg 79%
    22:00 +9°C° 0.1 mm 5 mps 737 mmHg 80%
    23:00 +8°C° 0.1 mm 5 mps 737 mmHg 82%

    Tomorrow, 17 September, Tuesday

    Time Temperature Precipitation Wind Pressure Humidity
    00:00 +8°C° 0 mm 5 mps 737 mmHg 82%
    01:00 +8°C° 0 mm 5 mps 737 mmHg 83%
    02:00 +7°C° 0 mm 5 mps 737 mmHg 84%
    03:00 +7°C° 0 mm 5 mps 737 mmHg 85%
    04:00 +6°C° 0 mm 5 mps 736 mmHg 86%
    05:00 +6°C° 0 mm 5 mps 736 mmHg 88%
    06:00 +6°C° 0 mm 5 mps 736 mmHg 85%
    07:00 +7°C° 0 mm 6 mps 736 mmHg 83%
    08:00 +8°C° 0 mm 6 mps 736 mmHg 81%
    09:00 +9°C° 0.1 mm 6 mps 736 mmHg 74%
    10:00 +10°C° 0.1 mm 7 mps 736 mmHg 68%
    11:00 +11°C° 0.1 mm 7 mps 736 mmHg 61%
    12:00 +12°C° 0.2 mm 7 mps 735 mmHg 60%
    13:00 +12°C° 0.2 mm 7 mps 735 mmHg 59%
    14:00 +14°C° 0.2 mm 7 mps 734 mmHg 57%
    15:00 +13°C° 0.3 mm 6 mps 734 mmHg 62%
    16:00 +12°C° 0.3 mm 5 mps 734 mmHg 67%
    17:00 +12°C° 0.3 mm 5 mps 733 mmHg 72%
    18:00 +11°C° 0.3 mm 4 mps 733 mmHg 77%
    19:00 +10°C° 0.3 mm 4 mps 733 mmHg 82%
    20:00 +9°C° 0.3 mm 3 mps 732 mmHg 87%
    21:00 +8°C° 0.3 mm 4 mps 732 mmHg 88%
    22:00 +7°C° 0.3 mm 5 mps 732 mmHg 89%
    23:00 +7°C° 0.3 mm 6 mps 731 mmHg 90%

    Day after tomorrow, 18 September, Wednesday

    Time Temperature Precipitation Wind Pressure Humidity
    00:00 +5°C° 0.6 mm 6 mps 731 mmHg 89%
    01:00 +5°C° 0.6 mm 6 mps 731 mmHg 89%
    02:00 +4°C° 0.6 mm 6 mps 731 mmHg 88%
    03:00 +4°C° 0 mm 6 mps 731 mmHg 89%
    04:00 +4°C° 0 mm 6 mps 731 mmHg 89%
    05:00 +4°C° 0 mm 6 mps 731 mmHg 89%
    06:00 +4°C° 0.2 mm 6 mps 731 mmHg 89%
    07:00 +4°C° 0.2 mm 6 mps 732 mmHg 89%
    08:00 +4°C° 0.2 mm 6 mps 732 mmHg 88%
    09:00 +4°C° 0.9 mm 6 mps 733 mmHg 88%
    10:00 +5°C° 0.9 mm 6 mps 733 mmHg 88%
    11:00 +7°C° 0.9 mm 6 mps 734 mmHg 89%
    12:00 +6°C° 0.1 mm 7 mps 735 mmHg 84%
    13:00 +8°C° 0.1 mm 7 mps 735 mmHg 80%
    14:00 +9°C° 0.1 mm 7 mps 736 mmHg 76%
    15:00 +9°C° 0.1 mm 6 mps 736 mmHg 75%
    16:00 +9°C° 0.1 mm 6 mps 737 mmHg 74%
    17:00 +10°C° 0.1 mm 5 mps 738 mmHg 73%
    18:00 +8°C° 0 mm 4 mps 738 mmHg 78%
    19:00 +7°C° 0 mm 4 mps 738 mmHg 83%
    20:00 +6°C° 0 mm 4 mps 739 mmHg 87%
    21:00 +6°C° 0 mm 4 mps 739 mmHg 90%
    22:00 +6°C° 0 mm 4 mps 739 mmHg 92%
    23:00 +5°C° 0 mm 4 mps 740 mmHg 94%

    19 September, Thursday

    Time Temperature Precipitation Wind Pressure Humidity
    00:00 +6°C° 0 mm 4 mps 740 mmHg 94%
    01:00 +6°C° 0 mm 4 mps 740 mmHg 94%
    02:00 +6°C° 0 mm 4 mps 741 mmHg 94%
    03:00 +6°C° 0.2 mm 4 mps 741 mmHg 94%
    04:00 +6°C° 0.2 mm 4 mps 741 mmHg 93%
    05:00 +6°C° 0.2 mm 4 mps 741 mmHg 92%
    06:00 +6°C° 0.2 mm 4 mps 742 mmHg 91%
    07:00 +6°C° 0.2 mm 4 mps 742 mmHg 90%
    08:00 +6°C° 0.2 mm 5 mps 742 mmHg 89%
    09:00 +7°C° 0 mm 4 mps 743 mmHg 86%
    10:00 +8°C° 0 mm 4 mps 743 mmHg 83%
    11:00 +9°C° 0 mm 3 mps 744 mmHg 80%
    12:00 +10°C° 0.1 mm 3 mps 744 mmHg 75%
    13:00 +11°C° 0.1 mm 3 mps 744 mmHg 71%
    14:00 +11°C° 0.1 mm 3 mps 744 mmHg 67%
    15:00 +11°C° 0.1 mm 3 mps 743 mmHg 70%
    16:00 +10°C° 0.1 mm 3 mps 743 mmHg 73%
    17:00 +10°C° 0.1 mm 3 mps 743 mmHg 75%
    18:00 +9°C° 0.1 mm 3 mps 743 mmHg 80%
    19:00 +8°C° 0.1 mm 3 mps 744 mmHg 85%
    20:00 +7°C° 0.1 mm 3 mps 744 mmHg 89%
    21:00 +5°C° 0 mm 3 mps 744 mmHg 90%
    22:00 +5°C° 0 mm 3 mps 744 mmHg 91%
    23:00 +4°C° 0 mm 3 mps 744 mmHg 92%

    20 September, Friday

    Time Temperature Precipitation Wind Pressure Humidity
    00:00 +5°C° 0.1 mm 4 mps 744 mmHg 91%
    01:00 +5°C° 0.1 mm 5 mps 744 mmHg 90%
    02:00 +5°C° 0.1 mm 5 mps 744 mmHg 89%
    03:00 +5°C° 0.5 mm 5 mps 744 mmHg 90%
    04:00 +3°C° 0.5 mm 5 mps 744 mmHg 91%
    05:00 +3°C° 0.5 mm 5 mps 744 mmHg 92%
    06:00 +3°C° 0.8 mm 5 mps 744 mmHg 91%
    07:00 +3°C° 0.8 mm 5 mps 745 mmHg 90%
    08:00 +3°C° 0.8 mm 5 mps 745 mmHg 89%
    09:00 +5°C° 0.2 mm 5 mps 745 mmHg 82%
    10:00 +7°C° 0.2 mm 5 mps 746 mmHg 75%
    11:00 +8°C° 0.2 mm 5 mps 746 mmHg 68%
    12:00 +8°C° 0.4 mm 5 mps 746 mmHg 67%
    13:00 +8°C° 0.4 mm 5 mps 746 mmHg 65%
    14:00 +10°C° 0.4 mm 4 mps 746 mmHg 64%
    15:00 +8°C° 0.3 mm 4 mps 747 mmHg 66%
    16:00 +8°C° 0.3 mm 4 mps 747 mmHg 69%
    17:00 +7°C° 0.3 mm 4 mps 747 mmHg 71%
    18:00 +7°C° 0 mm 3 mps 748 mmHg 76%
    19:00 +5°C° 0 mm 3 mps 748 mmHg 81%
    20:00 +4°C° 0 mm 3 mps 749 mmHg 86%
    21:00 +3°C° 0 mm 3 mps 749 mmHg 87%
    22:00 +3°C° 0 mm 3 mps 749 mmHg 88%
    23:00 +2°C° 0 mm 3 mps 749 mmHg 89%

    21 September, Saturday

    Time Temperature Precipitation Wind Pressure Humidity
    00:00 +2°C° 0 mm 3 mps 750 mmHg 90%
    01:00 +2°C° 0 mm 2 mps 750 mmHg 90%
    02:00 +2°C° 0 mm 2 mps 750 mmHg 91%
    03:00 +2°C° 0 mm 2 mps 750 mmHg 91%
    04:00 +1°C° 0 mm 2 mps 750 mmHg 91%
    05:00 +1°C° 0 mm 2 mps 750 mmHg 90%
    06:00 +2°C° 0 mm 2 mps 750 mmHg 86%
    07:00 +3°C° 0 mm 2 mps 751 mmHg 82%
    08:00 +4°C° 0 mm 2 mps 751 mmHg 78%
    09:00 +6°C° 0 mm 2 mps 751 mmHg 72%
    10:00 +7°C° 0 mm 2 mps 751 mmHg 65%
    11:00 +8°C° 0 mm 2 mps 751 mmHg 59%
    12:00 +9°C° 0 mm 3 mps 751 mmHg 58%
    13:00 +10°C° 0 mm 3 mps 751 mmHg 58%
    14:00 +10°C° 0 mm 3 mps 751 mmHg 58%
    15:00 +10°C° 0 mm 3 mps 751 mmHg 62%
    16:00 +10°C° 0 mm 3 mps 751 mmHg 66%
    17:00 +9°C° 0 mm 2 mps 751 mmHg 70%
    18:00 +8°C° 0 mm 2 mps 751 mmHg 75%
    19:00 +8°C° 0 mm 1 mps 751 mmHg 79%
    20:00 +7°C° 0 mm 1 mps 751 mmHg 84%
    21:00 +7°C° 0 mm 1 mps 751 mmHg 87%
    22:00 +6°C° 0 mm 1 mps 751 mmHg 89%
    23:00 +5°C° 0 mm 2 mps 751 mmHg 92%
    Show more